Change the Weather History Date:

Sunday, March 24, 2013

  Actual Average Record
Temperature  
Mean Temperature 28 °F -  
Max Temperature 30 °F 47 °F 77 °F (1963)
Min Temperature 26 °F 28 °F 3 °F (1965)
Degree Days  
Heating Degree Days 37    
Moisture  
Dew Point 26 °F    
Average Humidity 89    
Maximum Humidity 97    
Minimum Humidity 80    
Precipitation  
Precipitation 0.00 in - - ()
Sea Level Pressure  
Sea Level Pressure 29.97 in    
Wind  
Wind Speed 14 mph (NNW)    
Max Wind Speed 22 mph    
Max Gust Speed 26 mph    
Visibility 4 miles    
Events Rain , Snow    
Averages and records for this station are not official NWS values.
T = Trace of Precipitation, MM = Missing Value Source: NWS Daily Summary

Daily Weather History Graph

Daily Weather History Graph

Search for Another Location

Airport or City:

Trip Planner

Search our weather history database for the weather conditions in past years. The results will help you decide how hot, cold, wet, or windy it might be!

Date:

Astronomy

Mar. 24, 2013 Rise Set
Actual Time 7:12 AM CDT 7:33 PM CDT
Civil Twilight 6:44 AM CDT 8:01 PM CDT
Nautical Twilight 6:12 AM CDT 8:34 PM CDT
Astronomical Twilight 5:38 AM CDT 9:07 PM CDT
Moon 5:00 PM CDT (3/24) 5:25 AM CDT (3/24)
Length of Visible Light 13h 16m
Length of Day
12h 20m
Waxing Gibbous, 92% of the Moon is Illuminated
Mar 24
Waxing Gibbous
Mar 27
Full
Apr 2
Last Quarter
Apr 10
New
Apr 18
First Quarter

Hourly Weather History & Observations

Time (CDT) Temp. Windchill Dew Point Humidity Pressure Visibility Wind Dir Wind Speed Gust Speed Precip Events Conditions
12:15 AM 30.2 °F 22.6 °F 25.7 °F 83% 30.04 in 10.0 mi NNE 8.1 mph - N/A   Clear
12:35 AM 30.2 °F 22.6 °F 24.8 °F 80% 30.03 in 10.0 mi NNE 8.1 mph - N/A   Scattered Clouds
12:55 AM 30.2 °F 22.6 °F 25.2 °F 82% 30.03 in 10.0 mi NNE 8.1 mph - N/A   Mostly Cloudy
1:15 AM 30.6 °F 23.1 °F 25.2 °F 80% 30.04 in 10.0 mi NNE 8.1 mph - N/A   Overcast
1:35 AM 30.7 °F 22.0 °F 25.3 °F 80% 30.04 in 10.0 mi North 10.4 mph - N/A   Overcast
1:55 AM 30.2 °F 19.8 °F 26.2 °F 85% 30.04 in 10.0 mi North 13.8 mph 17.3 mph N/A   Overcast
2:35 AM 29.7 °F 18.6 °F 25.3 °F 84% 30.04 in 10.0 mi North 15.0 mph - N/A   Overcast
2:55 AM 29.3 °F 17.0 °F 24.4 °F 82% 30.03 in 10.0 mi North 18.4 mph - N/A   Overcast
3:15 AM 28.8 °F 16.6 °F 23.9 °F 82% 30.03 in 7.0 mi North 17.3 mph 24.2 mph N/A Snow Light Snow
3:35 AM 28.0 °F 15.3 °F 25.2 °F 89% 30.01 in 2.5 mi North 18.4 mph 24.2 mph N/A Snow Light Snow
3:55 AM 27.5 °F 15.0 °F 24.8 °F 90% 30.00 in 4.0 mi North 17.3 mph - N/A Snow Light Snow
4:15 AM 27.5 °F 15.4 °F 23.7 °F 86% 29.99 in 10.0 mi North 16.1 mph - N/A   Mostly Cloudy
4:35 AM 27.9 °F 16.3 °F 22.8 °F 81% 29.99 in 10.0 mi North 15.0 mph - N/A   Scattered Clouds
4:55 AM 27.5 °F 15.4 °F 22.8 °F 83% 29.99 in 10.0 mi North 16.1 mph - N/A   Overcast
5:15 AM 27.5 °F 15.0 °F 23.0 °F 83% 29.99 in 10.0 mi North 17.3 mph - N/A   Overcast
5:35 AM 27.1 °F 14.9 °F 23.5 °F 86% 29.99 in 7.0 mi North 16.1 mph - N/A Snow Light Snow
5:55 AM 26.6 °F 13.8 °F 23.9 °F 90% 29.99 in 5.0 mi North 17.3 mph - N/A Snow Light Snow
6:15 AM 26.4 °F 14.0 °F 23.7 °F 90% 29.99 in 7.0 mi North 16.1 mph 20.7 mph N/A Snow Light Snow
6:35 AM 26.6 °F 14.7 °F 23.9 °F 90% 29.99 in 10.0 mi North 15.0 mph - N/A   Overcast
6:55 AM 26.6 °F 14.3 °F 23.9 °F 90% 29.98 in 7.0 mi North 16.1 mph - N/A Snow Light Snow
7:15 AM 26.4 °F 15.0 °F 24.3 °F 92% 29.98 in 3.0 mi NNW 13.8 mph - N/A Snow Light Snow
7:35 AM 26.2 °F 15.8 °F 24.4 °F 93% 29.98 in 2.0 mi North 11.5 mph - N/A Snow Light Snow
7:55 AM 26.2 °F 14.7 °F 24.3 °F 92% 29.99 in 1.8 mi North 13.8 mph 18.4 mph N/A Snow Light Snow
8:15 AM 26.2 °F 13.8 °F 24.4 °F 93% 29.98 in 1.5 mi NNW 16.1 mph - N/A Snow Light Snow
8:35 AM 26.2 °F 13.8 °F 23.9 °F 91% 29.97 in 2.0 mi North 16.1 mph - N/A Snow Light Snow
8:55 AM 26.4 °F 14.0 °F 23.9 °F 90% 29.97 in 2.5 mi North 16.1 mph - N/A Snow Light Snow
9:15 AM 26.6 °F 15.7 °F 23.9 °F 90% 29.97 in 3.0 mi North 12.7 mph 20.7 mph N/A Snow Light Snow
9:35 AM 27.0 °F 16.1 °F 24.4 °F 90% 29.97 in 2.5 mi NNW 12.7 mph - N/A Snow Light Snow
9:55 AM 27.0 °F 15.6 °F 24.4 °F 90% 29.97 in 3.0 mi North 13.8 mph - N/A Snow Light Snow
10:15 AM 27.3 °F 15.6 °F 24.6 °F 90% 29.97 in 3.0 mi NNW 15.0 mph - N/A Snow Light Snow
10:35 AM 27.5 °F 15.9 °F 24.8 °F 90% 29.97 in 4.0 mi North 15.0 mph 20.7 mph N/A Snow Light Snow
10:55 AM 27.5 °F 15.9 °F 25.0 °F 90% 29.97 in 1.5 mi NNW 15.0 mph 19.6 mph N/A Snow Light Snow
11:15 AM 27.9 °F 16.3 °F 25.5 °F 91% 29.97 in 1.2 mi North 15.0 mph 20.7 mph N/A Snow Light Snow
11:35 AM 27.9 °F 15.5 °F 25.5 °F 91% 29.96 in 1.5 mi NNW 17.3 mph 21.9 mph N/A Snow Light Snow
11:55 AM 28.2 °F 16.8 °F 25.5 °F 90% 29.96 in 4.0 mi NNW 15.0 mph 20.7 mph N/A Snow Light Snow
12:15 PM 28.4 °F 16.6 °F 25.7 °F 90% 29.96 in 1.8 mi NNW 16.1 mph 21.9 mph N/A Snow Light Snow
12:35 PM 28.8 °F 16.6 °F 25.5 °F 88% 29.94 in 3.0 mi NNW 17.3 mph 21.9 mph N/A Snow Light Snow
12:55 PM 28.8 °F 15.9 °F 24.8 °F 85% 29.94 in 7.0 mi North 19.6 mph 25.3 mph N/A   Overcast
1:15 PM 29.1 °F 15.7 °F 25.2 °F 85% 29.93 in 10.0 mi North 21.9 mph 26.5 mph N/A   Overcast
1:35 PM 29.3 °F 16.6 °F 25.0 °F 84% 29.93 in 10.0 mi NNW 19.6 mph 26.5 mph N/A   Overcast
1:55 PM 29.3 °F 16.2 °F 24.8 °F 83% 29.94 in 10.0 mi North 20.7 mph 26.5 mph N/A   Overcast
2:15 PM 29.3 °F 17.0 °F 24.8 °F 83% 29.93 in 10.0 mi NNW 18.4 mph 26.5 mph N/A   Overcast
2:35 PM 29.7 °F 17.8 °F 25.0 °F 83% 29.93 in 7.0 mi North 17.3 mph 25.3 mph N/A   Overcast
2:55 PM 29.7 °F 17.4 °F 25.7 °F 85% 29.92 in 3.0 mi North 18.4 mph 24.2 mph N/A Snow Light Snow
3:15 PM 29.7 °F 18.6 °F 26.4 °F 88% 29.92 in 1.5 mi NNW 15.0 mph - N/A Snow Light Snow
3:35 PM 29.8 °F 18.9 °F 27.1 °F 90% 29.92 in 1.5 mi NNW 15.0 mph - N/A Snow Light Snow
3:55 PM 30.0 °F 18.7 °F 27.5 °F 90% 29.92 in 1.5 mi NNW 16.1 mph 23.0 mph N/A Snow Light Snow
4:15 PM 30.2 °F 18.1 °F 27.5 °F 90% 29.92 in 2.0 mi NNW 18.4 mph 24.2 mph N/A Snow Light Snow
4:35 PM 30.6 °F 19.0 °F 28.0 °F 90% 29.92 in 2.0 mi NNW 17.3 mph 21.9 mph N/A Rain Light Freezing Rain
4:55 PM 30.6 °F 19.0 °F 28.2 °F 91% 29.93 in 2.0 mi NNW 17.3 mph 20.7 mph N/A Rain Light Freezing Rain
5:15 PM 30.6 °F 21.8 °F 28.4 °F 92% 29.93 in 2.0 mi NNW 10.4 mph - N/A Snow Light Snow
5:35 PM 30.2 °F 18.9 °F 28.4 °F 93% 29.94 in 1.2 mi NNW 16.1 mph 19.6 mph N/A Snow Light Snow
5:55 PM 30.2 °F 19.3 °F 28.6 °F 94% 29.94 in 1.0 mi NNW 15.0 mph - N/A Snow Light Snow
6:15 PM 30.2 °F 20.2 °F 28.8 °F 94% 29.94 in 1.2 mi NNW 12.7 mph - N/A Snow Light Snow
6:35 PM 30.2 °F 19.8 °F 28.9 °F 95% 29.94 in 1.0 mi NNW 13.8 mph 21.9 mph N/A Snow Light Snow
6:55 PM 30.2 °F 20.8 °F 28.9 °F 95% 29.96 in 1.2 mi North 11.5 mph - N/A Snow Light Snow
7:15 PM 29.8 °F 18.9 °F 28.2 °F 94% 29.96 in 1.8 mi NNW 15.0 mph 19.6 mph N/A Snow Light Snow
7:35 PM 29.5 °F 19.3 °F 27.3 °F 92% 29.97 in 2.5 mi NNW 12.7 mph - N/A Rain Light Freezing Rain
7:55 PM 29.3 °F 18.2 °F 28.0 °F 95% 29.97 in 3.0 mi NNW 15.0 mph - N/A Snow Light Snow
8:15 PM 29.1 °F 17.9 °F 27.9 °F 95% 29.97 in 2.0 mi NNW 15.0 mph - N/A Snow Light Snow
8:35 PM 28.9 °F 18.6 °F 27.5 °F 94% 29.98 in 3.0 mi NNW 12.7 mph - N/A Snow Light Snow
8:55 PM 28.9 °F 18.2 °F 27.5 °F 94% 29.98 in 2.5 mi NNW 13.8 mph - N/A Snow Light Snow
9:15 PM 28.8 °F 17.9 °F 27.3 °F 94% 29.98 in 2.5 mi NNW 13.8 mph 20.7 mph N/A   Overcast
9:35 PM 28.4 °F 17.0 °F 27.5 °F 96% 29.98 in 2.0 mi NNW 15.0 mph 19.6 mph N/A Snow Light Snow
9:55 PM 28.4 °F 17.0 °F 27.3 °F 96% 29.98 in 2.5 mi NNW 15.0 mph 20.7 mph N/A   Overcast
10:15 PM 28.4 °F 18.0 °F 27.3 °F 96% 29.98 in 2.0 mi North 12.7 mph - N/A Snow Light Snow
10:35 PM 28.4 °F 16.6 °F 27.3 °F 96% 29.99 in 2.5 mi North 16.1 mph - N/A Snow Light Snow
10:55 PM 28.4 °F 17.0 °F 27.3 °F 96% 29.99 in 2.0 mi North 15.0 mph 19.6 mph N/A Snow Light Snow
11:15 PM 28.4 °F 19.1 °F 27.5 °F 96% 29.99 in 1.2 mi NNW 10.4 mph - N/A Snow Light Snow
11:35 PM 28.6 °F 18.7 °F 27.9 °F 97% 29.98 in 1.2 mi NNW 11.5 mph - N/A Snow Light Snow
11:55 PM 28.8 °F 17.5 °F 27.9 °F 96% 29.99 in 2.5 mi NNW 15.0 mph - N/A   Overcast